sat.trackr.live / text

‹ back to catalog

STARLINK-36618

NORAD 67847 · 2026-033AC

PAYLOAD ACTIVE UNKNOWN

§ Identity

Operator
Country
US
Launch date
2026-02-16
Launch site
AFETR
Launch vehicle
Mass (kg)
RCS (m²)

Purposes: comms

External: N2YO · Heavens-Above · Gunter

§ Orbital elements

Epoch: 2026-09-19T00:03:56.319552Z

Period
94.27 min
Inclination
43.0041°
Eccentricity
0.0001507
Mean motion
15.27580084 rev/d
Perigee alt
482.0 km
Apogee alt
484.1 km
Semi-major
6,861.2 km
B*
3.1765e-4
RAAN
240.7134°
Arg perigee
274.0114°
Mean anomaly
86.0565°
Rev number
3,440

§ Raw data

STARLINK-366181 67847U 26033AC  26262.00273518  .00008489  00000+0  31765-3 0  99932 67847  43.0041 240.7134 0001507 274.0114  86.0565 15.27580084 34400

JSON: /api/v1/satellites/67847 · /tle

For live sub-satellite position, see the globe view (requires WebGL).

§ Visibility from observer

Set your observer location to see the next 7 days of passes ≥ 10°. The values pass through the URL so the page stays shareable.

No JS? Fill the form by hand. The geolocation button needs JavaScript.